BUCKET : Surface water sample collected by a bucket on a rope  as at 21/11/1997 10:06         
Cruise,GCODE,Date and Time,OID,BODC#,Latitude,Longitude          
VLD154 , BUCKET , 18/07/1995 08:00 , SAL001 , 213346 , 49.376 , -9.488 ,         
VLD154 , BUCKET , 18/07/1995 12:00 , SAL002 , 213348 , 49.182 , -8.459 ,         
VLD154 , BUCKET , 18/07/1995 16:15 , SAL003 , 213350 , 49.046 , -7.321 ,         
VLD154 , BUCKET , 18/07/1995 17:45 , SAL004 , 213352 , 49.000 , -7.135 ,         
VLD154 , BUCKET , 18/07/1995 20:00 , SAL005 , 213354 , 48.928 , -7.244 ,         
VLD154 , BUCKET , 19/07/1995 00:08 , SAL006 , 213356 , 48.654 , -8.193 ,         
VLD154 , BUCKET , 19/07/1995 04:30 , SAL007 , 213358 , 48.354 , -9.278 ,         
VLD154 , BUCKET , 19/07/1995 08:00 , SAL008 , 213360 , 48.129 , -10.018 ,         
VLD154 , BUCKET , 19/07/1995 09:00 , SAL009 , 213362 , 47.874 , -10.939 ,         
VLD154 , BUCKET , 19/07/1995 16:00 , SAL010 , 213364 , 47.621 , -11.793 ,         
VLD154 , BUCKET , 19/07/1995 20:10 , SAL011 , 213366 , 47.358 , -12.755 ,         
VLD154 , BUCKET , 19/07/1995 23:50 , SAL012 , 213368 , 47.126 , -13.565 ,         
VLD154 , BUCKET , 20/07/1995 03:59 , SAL013 , 213370 , 47.003 , -13.991 ,         
VLD154 , BUCKET , 20/07/1995 08:00 , SAL014 , 213372 , 47.001 , -13.406 ,         
VLD154 , BUCKET , 20/07/1995 12:00 , SAL015 , 213374 , 46.987 , -12.343 ,         
VLD154 , BUCKET , 20/07/1995 16:00 , SAL016 , 213376 , 46.997 , -11.286 ,         
VLD154 , BUCKET , 20/07/1995 20:00 , SAL017 , 213378 , 46.991 , -10.337 ,         
VLD154 , BUCKET , 21/07/1995 00:00 , SAL018 , 213380 , 46.991 , -9.209 ,         
VLD154 , BUCKET , 21/07/1995 04:00 , SAL019 , 213382 , 46.998 , -8.168 ,         
VLD154 , BUCKET , 21/07/1995 08:00 , SAL020 , 213384 , 47.005 , -7.123 ,         
VLD154 , BUCKET , 21/07/1995 12:00 , SAL021 , 213386 , 46.939 , -6.217 ,         
VLD154 , BUCKET , 21/07/1995 16:00 , SAL022 , 213388 , 46.967 , -5.129 ,         
VLD154 , BUCKET , 21/07/1995 20:00 , SAL023 , 213390 , 46.979 , -4.083 ,         
VLD154 , BUCKET , 22/07/1995 00:00 , SAL024 , 213392 , 46.999 , -3.050 ,         
VLD154 , BUCKET , 22/07/1995 04:00 , SAL025 , 213394 , 46.773 , -3.592 ,         
VLD154 , BUCKET , 22/07/1995 08:00 , SAL026 , 213396 , 46.474 , -4.303 ,         
VLD154 , BUCKET , 22/07/1995 12:00 , SAL027 , 213398 , 46.217 , -4.867 ,         
VLD154 , BUCKET , 22/07/1995 20:00 , SAL028 , 213400 , 45.698 , -6.589 ,         
VLD154 , BUCKET , 23/07/1995 00:00 , SAL029 , 213402 , 45.395 , -7.525 ,         
VLD154 , BUCKET , 23/07/1995 04:00 , SAL030 , 213404 , 45.132 , -8.363 ,         
VLD154 , BUCKET , 23/07/1995 08:00 , SAL031 , 213406 , 44.848 , -9.280 ,         
VLD154 , BUCKET , 23/07/1995 12:00 , SAL032 , 213408 , 44.571 , -10.206 ,         
VLD154 , BUCKET , 23/07/1995 16:07 , SAL033 , 213410 , 44.329 , -11.147 ,         
VLD154 , BUCKET , 23/07/1995 20:00 , SAL034 , 213412 , 43.999 , -11.999 ,         
VLD154 , BUCKET , 24/07/1995 00:00 , SAL035 , 213414 , 43.841 , -11.897 ,         
VLD154 , BUCKET , 24/07/1995 04:00 , SAL036 , 213416 , 43.120 , -11.616 ,         
VLD154 , BUCKET , 24/07/1995 08:00 , SAL037 , 213418 , 42.476 , -11.330 ,         
VLD154 , BUCKET , 24/07/1995 12:00 , SAL038 , 213298 , 41.807 , -11.060 ,         
VLD154 , BUCKET , 24/07/1995 15:40 , SAL039 , 213300 , 41.171 , -10.814 ,         
VLD154 , BUCKET , 24/07/1995 20:00 , SAL040 , 213302 , 40.441 , -10.520 ,         
VLD154 , BUCKET , 25/07/1995 00:00 , SAL041 , 213304 , 39.752 , -10.259 ,         
VLD154 , BUCKET , 25/07/1995 04:00 , SAL042 , 213306 , 39.102 , -9.991 ,         
VLD154 , BUCKET , 25/07/1995 08:00 , SAL043 , 213308 , 38.679 , -9.456 ,         
VLD154 , BUCKET , 25/07/1995 12:00 , SAL044 , 213310 , 38.933 , -9.736 ,         
VLD154 , BUCKET , 25/07/1995 16:00 , SAL045 , 213312 , 39.637 , -9.712 ,         
VLD154 , BUCKET , 25/07/1995 19:10 , SAL046 , 213314 , 40.160 , -9.587 ,         
VLD154 , BUCKET , 25/07/1995 20:00 , SAL047 , 213316 , 40.303 , -9.549 ,         
VLD154 , BUCKET , 26/07/1995 00:50 , SAL048 , 213318 , 40.958 , -9.502 ,         
VLD154 , BUCKET , 26/07/1995 08:00 , SAL049 , 213320 , 42.044 , -9.508 ,         
VLD154 , BUCKET , 26/07/1995 13:20 , SAL050 , 213322 , 42.762 , -9.688 ,         
VLD154 , BUCKET , 26/07/1995 16:00 , SAL051 , 213324 , 43.160 , -9.782 ,         
VLD154 , BUCKET , 26/07/1995 20:00 , SAL052 , 213326 , 43.776 , -9.287 ,         
VLD154 , BUCKET , 27/07/1995 00:15 , SAL053 , 213328 , 44.431 , -8.757 ,         
VLD154 , BUCKET , 27/07/1995 04:00 , SAL054 , 213330 , 45.009 , -8.287 ,         
VLD154 , BUCKET , 27/07/1995 08:30 , SAL055 , 213332 , 45.662 , -7.745 ,         
VLD154 , BUCKET , 27/07/1995 12:00 , SAL056 , 213334 , 46.181 , -7.308 ,         
VLD154 , BUCKET , 27/07/1995 16:00 , SAL057 , 213336 , 46.798 , -6.773 ,         
VLD154 , BUCKET , 28/07/1995 03:00 , SAL058 , 213338 , 48.093 , -5.656 ,         
VLD154 , BUCKET , 28/07/1995 09:00 , SAL059 , 213340 , 48.942 , -4.478 ,         
